Time,TemperatureF,DewpointF,PressureIn,WindDirection,WindDirectionDegrees,WindSpeedMPH,WindSpeedGustMPH,Humidity,HourlyPrecipIn,Conditions,Clouds,dailyrainin,SoftwareType,DateUTC
2013-06-10 00:03:00,72.0,71.0,30.12,SE,144,3.0,6.0,96,0.02,,,0.18,,2013-06-10 04:03:00,
2013-06-10 00:13:00,72.0,71.0,30.12,SE,144,3.0,6.0,96,0.02,,,0.18,,2013-06-10 04:13:00,
2013-06-10 00:23:00,72.0,71.0,30.12,SE,144,3.0,6.0,96,0.02,,,0.18,,2013-06-10 04:23:00,
2013-06-10 00:33:00,72.0,71.0,30.11,SSE,153,3.0,5.0,96,0.02,,,0.18,,2013-06-10 04:33:00,
2013-06-10 00:42:00,72.0,71.0,30.11,SSE,153,3.0,5.0,96,0.02,,,0.18,,2013-06-10 04:42:00,
2013-06-10 00:53:00,72.0,71.0,30.11,South,190,3.0,6.0,97,0.02,,,0.18,,2013-06-10 04:53:00,
2013-06-10 01:02:00,72.0,71.0,30.11,SSW,193,4.0,8.0,97,0.00,,,0.18,,2013-06-10 05:02:00,
2013-06-10 01:12:00,72.0,71.0,30.11,SSW,193,4.0,8.0,97,0.00,,,0.18,,2013-06-10 05:12:00,
2013-06-10 01:22:00,72.0,71.0,30.11,SSE,154,4.0,7.0,97,0.00,,,0.18,,2013-06-10 05:22:00,
2013-06-10 01:32:00,72.0,71.0,30.11,SSE,149,5.0,7.0,97,0.00,,,0.18,,2013-06-10 05:32:00,
2013-06-10 01:42:00,72.0,71.0,30.11,SSE,149,5.0,7.0,97,0.00,,,0.18,,2013-06-10 05:42:00,
2013-06-10 01:52:00,72.0,71.0,30.11,SE,146,3.0,6.0,97,0.00,,,0.18,,2013-06-10 05:52:00,
2013-06-10 02:02:00,72.0,71.0,30.10,SE,135,5.0,7.0,97,0.00,,,0.18,,2013-06-10 06:02:00,
2013-06-10 02:12:00,72.0,71.0,30.10,SE,135,5.0,7.0,97,0.00,,,0.18,,2013-06-10 06:12:00,
2013-06-10 02:22:00,72.0,71.0,30.10,SE,133,5.0,8.0,97,0.00,,,0.18,,2013-06-10 06:22:00,
2013-06-10 02:32:00,72.0,71.0,30.09,SSE,163,4.0,8.0,97,0.00,,,0.18,,2013-06-10 06:32:00,
2013-06-10 02:42:00,72.0,71.0,30.09,SSE,163,4.0,8.0,97,0.00,,,0.18,,2013-06-10 06:42:00,
2013-06-10 02:53:00,72.0,71.0,30.09,WSW,239,6.0,11.0,98,0.00,,,0.18,,2013-06-10 06:53:00,
2013-06-10 03:02:00,72.0,71.0,30.09,South,191,5.0,9.0,98,0.00,,,0.18,,2013-06-10 07:02:00,
2013-06-10 03:12:00,72.0,71.0,30.09,South,191,5.0,9.0,98,0.00,,,0.18,,2013-06-10 07:12:00,
2013-06-10 03:22:00,72.0,71.0,30.09,South,169,4.0,11.0,98,0.00,,,0.18,,2013-06-10 07:22:00,
2013-06-10 03:32:00,72.0,71.0,30.08,SE,145,4.0,10.0,98,0.00,,,0.18,,2013-06-10 07:32:00,
2013-06-10 03:42:00,72.0,71.0,30.08,SE,145,4.0,10.0,98,0.00,,,0.18,,2013-06-10 07:42:00,
2013-06-10 03:52:00,73.0,72.0,30.08,SSE,159,5.0,9.0,98,0.00,,,0.18,,2013-06-10 07:52:00,
2013-06-10 04:02:00,73.0,72.0,30.08,SSE,148,6.0,10.0,98,0.00,,,0.18,,2013-06-10 08:02:00,
2013-06-10 04:12:00,73.0,72.0,30.08,SSE,148,6.0,10.0,98,0.00,,,0.18,,2013-06-10 08:12:00,
2013-06-10 04:22:00,73.0,72.0,30.07,South,169,6.0,10.0,98,0.00,,,0.18,,2013-06-10 08:22:00,
2013-06-10 04:32:00,73.0,72.0,30.07,South,172,4.0,11.0,98,0.00,,,0.18,,2013-06-10 08:32:00,
2013-06-10 04:42:00,73.0,72.0,30.07,South,172,4.0,11.0,98,0.00,,,0.18,,2013-06-10 08:42:00,
2013-06-10 04:52:00,73.0,72.0,30.07,SSW,204,5.0,10.0,98,0.00,,,0.18,,2013-06-10 08:52:00,
2013-06-10 05:02:00,73.0,72.0,30.06,South,176,5.0,9.0,98,0.00,,,0.18,,2013-06-10 09:02:00,
2013-06-10 05:12:00,73.0,72.0,30.06,South,176,5.0,9.0,98,0.00,,,0.18,,2013-06-10 09:12:00,
2013-06-10 05:22:00,73.0,72.0,30.06,SSW,210,5.0,10.0,98,0.00,,,0.18,,2013-06-10 09:22:00,
2013-06-10 05:32:00,73.0,72.0,30.06,SSE,161,6.0,12.0,98,0.00,,,0.18,,2013-06-10 09:32:00,
2013-06-10 05:42:00,73.0,72.0,30.06,SSE,161,6.0,12.0,98,0.00,,,0.18,,2013-06-10 09:42:00,
2013-06-10 05:53:00,73.0,72.0,30.06,SSE,155,4.0,9.0,98,0.01,,,0.19,,2013-06-10 09:53:00,
2013-06-10 06:03:00,73.0,72.0,30.06,SSW,211,5.0,11.0,98,0.09,,,0.27,,2013-06-10 10:03:00,
2013-06-10 06:13:00,73.0,72.0,30.06,SSW,211,5.0,11.0,98,0.09,,,0.27,,2013-06-10 10:13:00,
2013-06-10 06:23:00,73.0,72.0,30.06,SSW,195,4.0,7.0,98,0.10,,,0.28,,2013-06-10 10:23:00,
2013-06-10 06:33:00,73.0,72.0,30.06,South,190,5.0,8.0,98,0.10,,,0.28,,2013-06-10 10:33:00,
2013-06-10 06:42:00,73.0,72.0,30.06,South,190,5.0,8.0,98,0.10,,,0.28,,2013-06-10 10:42:00,
2013-06-10 06:52:00,73.0,72.0,30.06,SSW,200,5.0,8.0,98,0.09,,,0.28,,2013-06-10 10:52:00,
2013-06-10 07:03:00,73.0,72.0,30.06,SSE,160,4.0,8.0,98,0.01,,,0.28,,2013-06-10 11:03:00,
2013-06-10 07:12:00,73.0,72.0,30.06,SSE,160,4.0,8.0,98,0.01,,,0.28,,2013-06-10 11:12:00,
2013-06-10 07:22:00,74.0,73.0,30.06,SW,222,6.0,11.0,98,0.00,,,0.28,,2013-06-10 11:22:00,
2013-06-10 07:32:00,74.0,73.0,30.06,SW,222,6.0,11.0,98,0.00,,,0.28,,2013-06-10 11:32:00,
2013-06-10 07:42:00,74.0,73.0,30.06,SW,222,6.0,11.0,98,0.00,,,0.28,,2013-06-10 11:42:00,
2013-06-10 07:52:00,74.0,73.0,30.06,SSE,150,6.0,12.0,98,0.00,,,0.28,,2013-06-10 11:52:00,
2013-06-10 08:02:00,74.0,73.0,30.06,SSW,201,7.0,16.0,97,0.00,,,0.28,,2013-06-10 12:02:00,
2013-06-10 08:12:00,74.0,73.0,30.06,SSW,201,7.0,16.0,97,0.00,,,0.28,,2013-06-10 12:12:00,
2013-06-10 08:22:00,75.0,74.0,30.06,South,191,6.0,10.0,97,0.00,,,0.28,,2013-06-10 12:22:00,
2013-06-10 08:32:00,75.0,74.0,30.06,South,169,8.0,11.0,96,0.00,,,0.28,,2013-06-10 12:32:00,
2013-06-10 08:42:00,75.0,74.0,30.06,South,169,8.0,11.0,96,0.00,,,0.28,,2013-06-10 12:42:00,
2013-06-10 08:52:00,75.0,73.0,30.06,SSW,208,6.0,12.0,95,0.00,,,0.28,,2013-06-10 12:52:00,
2013-06-10 09:02:00,75.0,73.0,30.07,SSW,208,8.0,14.0,95,0.00,,,0.28,,2013-06-10 13:02:00,
2013-06-10 09:12:00,75.0,73.0,30.07,SSW,208,8.0,14.0,95,0.00,,,0.28,,2013-06-10 13:12:00,
2013-06-10 09:22:00,76.0,74.0,30.06,SW,217,9.0,13.0,93,0.00,,,0.28,,2013-06-10 13:22:00,
2013-06-10 09:32:00,78.0,75.0,30.06,SSW,195,9.0,15.0,90,0.00,,,0.28,,2013-06-10 13:32:00,
2013-06-10 09:42:00,78.0,75.0,30.06,SSW,195,9.0,15.0,90,0.00,,,0.28,,2013-06-10 13:42:00,
2013-06-10 09:52:00,77.0,74.0,30.06,SSW,201,11.0,16.0,89,0.00,,,0.28,,2013-06-10 13:52:00,
2013-06-10 10:02:00,77.0,74.0,30.06,SSW,207,7.0,14.0,89,0.00,,,0.28,,2013-06-10 14:02:00,
2013-06-10 10:12:00,77.0,74.0,30.06,SSW,207,7.0,14.0,89,0.00,,,0.28,,2013-06-10 14:12:00,
2013-06-10 10:22:00,78.0,74.0,30.06,SSE,162,9.0,14.0,87,0.00,,,0.28,,2013-06-10 14:22:00,
2013-06-10 10:32:00,78.0,74.0,30.05,SSW,211,8.0,13.0,88,0.00,,,0.28,,2013-06-10 14:32:00,
2013-06-10 10:42:00,78.0,74.0,30.05,SSW,211,8.0,13.0,88,0.00,,,0.28,,2013-06-10 14:42:00,
2013-06-10 10:52:00,78.0,74.0,30.06,SSW,211,6.0,13.0,87,0.00,,,0.28,,2013-06-10 14:52:00,
2013-06-10 11:02:00,79.0,74.0,30.05,SW,221,9.0,12.0,86,0.00,,,0.28,,2013-06-10 15:02:00,
2013-06-10 11:12:00,79.0,74.0,30.05,SW,221,9.0,12.0,86,0.00,,,0.28,,2013-06-10 15:12:00,
2013-06-10 11:22:00,79.0,74.0,30.05,SW,224,6.0,11.0,84,0.00,,,0.28,,2013-06-10 15:22:00,
2013-06-10 11:33:00,81.0,75.0,30.05,SW,224,7.0,14.0,82,0.00,,,0.28,,2013-06-10 15:33:00,
2013-06-10 11:43:00,81.0,75.0,30.05,SW,224,7.0,14.0,82,0.00,,,0.28,,2013-06-10 15:43:00,
2013-06-10 11:53:00,81.0,75.0,30.04,SSW,212,11.0,15.0,82,0.00,,,0.28,,2013-06-10 15:53:00,
2013-06-10 12:03:00,82.0,75.0,30.04,SW,224,6.0,11.0,80,0.00,,,0.28,,2013-06-10 16:03:00,
2013-06-10 12:13:00,82.0,75.0,30.04,SW,224,6.0,11.0,80,0.00,,,0.28,,2013-06-10 16:13:00,
2013-06-10 12:23:00,81.0,74.0,30.03,SSW,200,8.0,14.0,80,0.00,,,0.28,,2013-06-10 16:23:00,
2013-06-10 12:33:00,78.0,75.0,30.03,SSW,205,7.0,13.0,90,0.05,,,0.33,,2013-06-10 16:33:00,
2013-06-10 12:43:00,78.0,75.0,30.03,SSW,205,7.0,13.0,90,0.05,,,0.33,,2013-06-10 16:43:00,
2013-06-10 12:53:00,74.0,71.0,30.03,West,264,4.0,20.0,90,0.31,,,0.59,,2013-06-10 16:53:00,
2013-06-10 13:03:00,78.0,75.0,30.02,SSW,208,7.0,13.0,90,0.32,,,0.60,,2013-06-10 17:03:00,
2013-06-10 13:14:00,78.0,75.0,30.02,SSW,208,7.0,13.0,90,0.32,,,0.60,,2013-06-10 17:14:00,
2013-06-10 13:27:00,80.0,76.0,30.01,SSE,158,6.0,12.0,87,0.32,,,0.60,,2013-06-10 17:27:00,
2013-06-10 13:38:00,80.0,75.0,30.00,SSW,208,6.0,11.0,86,0.27,,,0.60,,2013-06-10 17:38:00,
2013-06-10 13:48:00,80.0,75.0,30.00,SSW,194,5.0,12.0,85,0.02,,,0.61,,2013-06-10 17:48:00,
2013-06-10 13:58:00,80.0,75.0,30.00,SSW,194,5.0,12.0,85,0.02,,,0.61,,2013-06-10 17:58:00,
2013-06-10 14:07:00,83.0,76.0,29.99,WSW,238,6.0,8.0,80,0.01,,,0.61,,2013-06-10 18:07:00,
2013-06-10 14:14:00,83.0,76.0,29.99,WSW,238,6.0,8.0,80,0.01,,,0.61,,2013-06-10 18:14:00,
2013-06-10 14:25:00,83.0,76.0,29.98,SW,233,6.0,15.0,79,0.01,,,0.61,,2013-06-10 18:25:00,
2013-06-10 14:35:00,81.0,74.0,29.97,SSW,204,10.0,21.0,80,0.01,,,0.61,,2013-06-10 18:35:00,
2013-06-10 14:48:00,81.0,74.0,29.97,SSW,204,10.0,21.0,80,0.01,,,0.61,,2013-06-10 18:48:00,
2013-06-10 14:55:00,78.0,74.0,29.96,NW,326,3.0,7.0,88,0.04,,,0.65,,2013-06-10 18:55:00,
2013-06-10 15:03:00,77.0,74.0,29.98,SW,224,6.0,11.0,90,0.33,,,0.94,,2013-06-10 19:03:00,
2013-06-10 15:13:00,77.0,74.0,29.98,SW,224,6.0,11.0,90,0.33,,,0.94,,2013-06-10 19:13:00,
2013-06-10 15:22:00,77.0,74.0,29.97,SSW,201,4.0,6.0,91,0.36,,,0.97,,2013-06-10 19:22:00,
2013-06-10 15:33:00,80.0,76.0,29.96,SSW,192,9.0,14.0,88,0.36,,,0.97,,2013-06-10 19:33:00,
2013-06-10 15:43:00,80.0,76.0,29.96,SSW,192,9.0,14.0,88,0.36,,,0.97,,2013-06-10 19:43:00,
2013-06-10 15:53:00,82.0,77.0,29.95,South,191,6.0,13.0,85,0.32,,,0.97,,2013-06-10 19:53:00,
2013-06-10 16:03:00,83.0,77.0,29.94,SSE,149,9.0,14.0,83,0.03,,,0.97,,2013-06-10 20:03:00,
2013-06-10 16:12:00,83.0,77.0,29.94,SSE,149,9.0,14.0,83,0.03,,,0.97,,2013-06-10 20:12:00,
2013-06-10 16:23:00,82.0,76.0,29.94,South,187,9.0,15.0,82,0.00,,,0.97,,2013-06-10 20:23:00,
2013-06-10 16:32:00,81.0,76.0,29.93,SSW,208,10.0,15.0,86,0.02,,,0.99,,2013-06-10 20:32:00,
2013-06-10 16:43:00,81.0,76.0,29.93,SSW,208,10.0,15.0,86,0.02,,,0.99,,2013-06-10 20:43:00,
2013-06-10 16:53:00,81.0,76.0,29.93,SSW,208,10.0,15.0,86,0.02,,,0.99,,2013-06-10 20:53:00,
2013-06-10 17:02:00,80.0,74.0,29.93,SSE,165,9.0,17.0,83,0.02,,,0.99,,2013-06-10 21:02:00,
2013-06-10 17:12:00,80.0,74.0,29.93,SSE,165,9.0,17.0,83,0.02,,,0.99,,2013-06-10 21:12:00,
2013-06-10 17:23:00,80.0,74.0,29.93,South,174,8.0,12.0,83,0.02,,,0.99,,2013-06-10 21:23:00,
2013-06-10 17:34:00,80.0,74.0,29.93,South,173,8.0,11.0,82,0.00,,,0.99,,2013-06-10 21:34:00,
2013-06-10 17:43:00,80.0,74.0,29.93,South,173,8.0,11.0,82,0.00,,,0.99,,2013-06-10 21:43:00,
2013-06-10 17:53:00,79.0,74.0,29.95,WSW,246,6.0,19.0,85,0.02,,,1.01,,2013-06-10 21:53:00,
2013-06-10 18:03:00,73.0,71.0,29.96,SSW,203,9.0,16.0,95,0.60,,,1.59,,2013-06-10 22:03:00,
2013-06-10 18:13:00,73.0,71.0,29.96,SSW,203,9.0,16.0,95,0.60,,,1.59,,2013-06-10 22:13:00,
2013-06-10 18:22:00,74.0,72.0,29.93,SW,227,5.0,11.0,94,0.64,,,1.63,,2013-06-10 22:22:00,
2013-06-10 18:33:00,75.0,72.0,29.93,South,190,5.0,10.0,91,0.64,,,1.63,,2013-06-10 22:33:00,
2013-06-10 18:42:00,75.0,72.0,29.93,South,190,5.0,10.0,91,0.64,,,1.63,,2013-06-10 22:42:00,
2013-06-10 18:52:00,75.0,73.0,29.93,South,190,6.0,13.0,92,0.62,,,1.63,,2013-06-10 22:52:00,
2013-06-10 19:03:00,75.0,73.0,29.93,SW,215,10.0,16.0,92,0.04,,,1.63,,2013-06-10 23:03:00,
2013-06-10 19:12:00,75.0,73.0,29.93,SW,215,10.0,16.0,92,0.04,,,1.63,,2013-06-10 23:12:00,
2013-06-10 19:22:00,75.0,73.0,29.94,SSE,167,9.0,15.0,92,0.00,,,1.63,,2013-06-10 23:22:00,
2013-06-10 19:32:00,75.0,73.0,29.94,SSW,201,7.0,12.0,93,0.00,,,1.63,,2013-06-10 23:32:00,
2013-06-10 19:42:00,75.0,73.0,29.94,SSW,201,7.0,12.0,93,0.00,,,1.63,,2013-06-10 23:42:00,
2013-06-10 19:52:00,74.0,72.0,29.95,South,174,10.0,14.0,93,0.00,,,1.63,,2013-06-10 23:52:00,
2013-06-10 20:02:00,74.0,72.0,29.94,South,173,7.0,15.0,93,0.00,,,1.63,,2013-06-11 00:02:00,
2013-06-10 20:13:00,73.0,71.0,29.94,SSW,204,7.0,14.0,94,0.00,,,1.63,,2013-06-11 00:13:00,
2013-06-10 20:22:00,73.0,71.0,29.94,SSW,204,7.0,14.0,94,0.00,,,1.63,,2013-06-11 00:22:00,
2013-06-10 20:32:00,73.0,71.0,29.94,SSW,207,7.0,13.0,94,0.00,,,1.63,,2013-06-11 00:32:00,
2013-06-10 20:42:00,73.0,71.0,29.94,SSW,207,7.0,13.0,94,0.00,,,1.63,,2013-06-11 00:42:00,
2013-06-10 20:52:00,73.0,71.0,29.93,ESE,123,8.0,13.0,94,0.00,,,1.63,,2013-06-11 00:52:00,
2013-06-10 21:02:00,73.0,71.0,29.93,SSW,205,5.0,13.0,94,0.00,,,1.63,,2013-06-11 01:02:00,
2013-06-10 21:12:00,73.0,71.0,29.93,SSW,205,5.0,13.0,94,0.00,,,1.63,,2013-06-11 01:12:00,
2013-06-10 21:22:00,72.0,70.0,29.94,SSW,201,7.0,13.0,94,0.00,,,1.47,,2013-06-11 01:22:00,
2013-06-10 21:33:00,73.0,71.0,29.93,SSW,198,9.0,13.0,94,0.00,,,1.47,,2013-06-11 01:33:00,
2013-06-10 21:42:00,73.0,71.0,29.93,SSW,198,9.0,13.0,94,0.00,,,1.47,,2013-06-11 01:42:00,
2013-06-10 21:53:00,73.0,71.0,29.94,SSW,205,6.0,10.0,94,0.00,,,1.47,,2013-06-11 01:53:00,
2013-06-10 22:02:00,72.0,70.0,29.95,South,188,5.0,9.0,94,0.00,,,1.47,,2013-06-11 02:02:00,
2013-06-10 22:12:00,72.0,70.0,29.95,South,188,5.0,9.0,94,0.00,,,1.47,,2013-06-11 02:12:00,
2013-06-10 22:22:00,72.0,70.0,29.96,South,172,7.0,12.0,95,0.00,,,1.47,,2013-06-11 02:22:00,
2013-06-10 22:32:00,72.0,70.0,29.96,South,183,7.0,16.0,94,0.00,,,1.47,,2013-06-11 02:32:00,
2013-06-10 22:42:00,72.0,70.0,29.97,SSW,208,10.0,16.0,94,0.00,,,1.47,,2013-06-11 02:42:00,
2013-06-10 22:52:00,72.0,70.0,29.97,SSW,208,10.0,16.0,94,0.00,,,1.47,,2013-06-11 02:52:00,
2013-06-10 23:03:00,72.0,70.0,29.98,SSW,201,9.0,14.0,94,0.00,,,1.47,,2013-06-11 03:03:00,
2013-06-10 23:13:00,72.0,70.0,29.98,SW,217,8.0,11.0,94,0.00,,,1.47,,2013-06-11 03:13:00,
2013-06-10 23:22:00,72.0,70.0,29.98,SW,217,8.0,11.0,94,0.00,,,1.47,,2013-06-11 03:22:00,
2013-06-10 23:32:00,72.0,70.0,29.98,SSW,210,7.0,14.0,94,0.00,,,1.47,,2013-06-11 03:32:00,
2013-06-10 23:43:00,72.0,70.0,29.97,SSW,204,8.0,12.0,94,0.00,,,1.47,,2013-06-11 03:43:00,
2013-06-10 23:53:00,72.0,70.0,29.97,SSW,204,8.0,12.0,94,0.00,,,1.47,,2013-06-11 03:53:00,